Miscellaneous Local Product
Issued by NWS Hastings, NE

Home | Current Version | Previous Version | Graphics & Text | Print | Product List | Glossary On
Versions: 1 2 3 4 5 6 7 8 9 10 11 12 13 14 15 16 17 18 19 20 21 22 23 24 25 26 27 28 29 30 31 32 33 34 35 36 37 38 39 40 41 42 43 44 45 46 47 48 49 50
000
AXUS43 KGID 060002
MISGRI

GID CWA HOURLY WEATHER ROUNDUP
NATIONAL WEATHER SERVICE HASTINGS NE
600 PM CST MON DEC 05 2016

NOTE: "FAIR" INDICATES FEW OR NO CLOUDS BELOW 12,000 FEET WITH NO
SIGNIFICANT WEATHER AND/OR OBSTRUCTIONS TO VISIBILITY.

...SOUTH CENTRAL NEBRASKA...

CITY           SKY/WX    TMP DP  RH WIND       PRES   REMARKS
GRAND ISLAND   CLOUDY    45  36  70 NW8       29.69R
HASTINGS       CLOUDY    46  35  65 W6        29.67R
KEARNEY        CLOUDY    46  28  49 N20G25    29.69R
ORD            CLOUDY    37  26  64 N24G33    29.75R WCI  26
YORK           CLOUDY    46  37  71 SW8       29.66R
AURORA         CLOUDY    46  36  68 NW9       29.68R
LEXINGTON      CLOUDY    43  30  60 N23G31    29.71R
HOLDREGE       CLOUDY    46  29  51 N15       29.68R
HEBRON         CLEAR     42  34  74 SW6       29.66R

...NEBRASKA PANHANDLE...

CITY           SKY/WX    TMP DP  RH WIND       PRES   REMARKS
CHADRON        PTCLDY    24  12  60 W15       29.88R WCI  11
ALLIANCE       CLEAR     23  11  60 NW22G31   29.80R WCI   8
SCOTTSBLUFF    CLEAR     23  11  60 NW16G25   29.87R WCI  10
SIDNEY         CLOUDY    26  12  55 N12       29.82R WCI  16

...WESTERN AND NORTH CENTRAL NEBRASKA...

CITY           SKY/WX    TMP DP  RH WIND       PRES   REMARKS
VALENTINE      PTCLDY    24  16  71 NW22G30   29.79R WCI   9
AINSWORTH      CLOUDY    28  21  75 NW22G29   29.80R WCI  13
ONEILL         CLOUDY    32  26  76 NW22G28   29.76R WCI  20
BROKEN BOW     CLOUDY    32  24  72 N30G40    29.76R WCI  18
IMPERIAL       CLOUDY    35  17  47 NW22G31   29.79R WCI  23
NORTH PLATTE   CLOUDY    32  20  61 N17G31    29.79R WCI  21
MCCOOK         CLOUDY    46  19  34 MISG      29.71R

...EASTERN NEBRASKA...

CITY           SKY/WX    TMP DP  RH WIND       PRES   REMARKS
NORFOLK        PTCLDY    39  30  70 NW16      29.70R WCI  30
SO SIOUX CITY  CLOUDY    44  37  76 W7        29.68R
TEKAMAH        CLOUDY    43  37  79 S6        29.67R
COLUMBUS       PTCLDY    45  37  76 W7        29.70R
ALBION         CLOUDY    39  31  71 NW18      29.72R WCI  30
OMAHA EPPLEY   MOCLDY    46  37  71 S13       29.67R
OFFUTT AFB     PTCLDY    44  40  87 SE9       29.68R
MILLARD        PTCLDY    46  37  69 SE6       29.67R
LINCOLN        MOCLDY    44  34  67 S5        29.68R
NEBRASKA CITY  CLEAR     44  34  68 S12       29.68R
BEATRICE       CLEAR     44  34  67 S7        29.66R
FALLS CITY     CLEAR     39  34  82 SE8       29.70R WCI  33

...NORTHERN KANSAS...

CITY           SKY/WX    TMP DP  RH WIND       PRES   REMARKS
GOODLAND       CLEAR     39  -3  17 N21G36    29.73R WCI  29
HILL CITY      CLEAR     36  26  67 NW6       29.68R WCI  31
NORTON         PTCLDY    43  21  42 NW7       29.68R
PHILLIPSBURG   CLOUDY    43  30  61 W3        29.67S
SMITH CENTER   MOCLDY    43  32  65 W3        29.67R
BELOIT         CLEAR     43  34  70 CALM      29.66R
HAYS           CLEAR     47  30  51 N10       29.65R
RUSSELL        CLEAR     43  34  70 SE7       29.63R
CONCORDIA      CLEAR     42  34  73 S7        29.66R
SALINA         CLEAR     44  35  70 S7        29.68R
TOPEKA         CLEAR     44  34  67 SE5       29.71S



USA.gov is the U.S. government's official web portal to all federal, state and local government web resources and services.